Hildegaard — C6QU3 — position and weather

sailwx.info

Track history (hours):
 
Tides and Currents Weather Stations Pressure Air Temp Water Temp Dewpoint Dewpoint Depression Visibility Wind Speed Wind Dir Waves Ship Positions

Hildegaard

Last reported at 2014-Oct-21 04:32 UTC. Time now 2014-Oct-21 05:26 UTC.
Position N 56°03' W 002°57'.

Length 248 m; draft 8.6 m.

Type: Ship. MMSI: 308574000.

Date/timePositionNaut miles runAvg speedWind from/ knotsBaromVisibWave heightAir tempDewpointWater temp
2014-Oct-21 04:32N 56°03' W 002°57'0 0.0
2014-Oct-21 03:29N 56°03' W 002°57'0 0.0
2014-Oct-21 02:32N 56°03' W 002°57'0 0.0
2014-Oct-21 01:32N 56°03' W 002°57'0 0.0
2014-Oct-21 00:32N 56°03' W 002°57'0 0.1
2014-Oct-20 23:32N 56°03' W 002°57'0 0.0
2014-Oct-20 22:32N 56°03' W 002°57'0 0.0
2014-Oct-20 21:32N 56°03' W 002°57'0 0.1
2014-Oct-20 20:23N 56°03' W 002°57'0 0.0
2014-Oct-20 19:23N 56°03' W 002°57'0 0.0
2014-Oct-20 18:26N 56°03' W 002°57'0 0.0
2014-Oct-20 17:26N 56°03' W 002°57'0 0.0
2014-Oct-20 16:26N 56°03' W 002°57'0 0.0
2014-Oct-20 15:29N 56°03' W 002°57'0 0.0
2014-Oct-20 14:29N 56°03' W 002°57'0 0.0
2014-Oct-20 13:29N 56°03' W 002°57'0 0.0
2014-Oct-20 12:32N 56°03' W 002°57'0 0.0
2014-Oct-20 11:30N 56°03' W 002°57'0 0.0
2014-Oct-20 10:27N 56°03' W 002°57'0 0.0
2014-Oct-20 09:33N 56°03' W 002°57'0 0.0
2014-Oct-20 08:33N 56°03' W 002°57'0 0.0
2014-Oct-20 07:33N 56°03' W 002°57'2 1.9
2014-Oct-20 06:33N 56°04' W 002°54'1110.9
2014-Oct-20 05:33N 56°07' W 002°35'7 7.4
2014-Oct-20 04:33N 56°05' W 002°23'5 5.5
2014-Oct-20 03:33N 56°03' W 002°14'6 5.6
2014-Oct-20 02:33N 56°01' W 002°04'5 5.1
2014-Oct-20 01:33N 55°59' W 001°56'5 4.9
2014-Oct-20 00:34N 55°58' W 001°48'5 4.6
2014-Oct-19 23:34N 55°56' W 001°40'114 5.7
2014-Oct-19 03:29N 54°41' E 000°49'11 5.4
2014-Oct-19 01:26N 54°33' E 001°03'181 5.5
2014-Oct-17 16:33N 51°40' E 002°28'6 5.5
2014-Oct-17 15:33N 51°36' E 002°22'5 5.5
2014-Oct-17 14:33N 51°31' E 002°16'6 6.0
2014-Oct-17 13:32N 51°27' E 002°09'6 5.8
2014-Oct-17 12:34N 51°23' E 002°02'6 6.4
2014-Oct-17 11:33N 51°18' E 001°56'7 6.8
2014-Oct-17 10:34N 51°13' E 001°49'7 7.1
2014-Oct-17 09:34N 51°07' E 001°42'7 7.4
2014-Oct-17 08:34N 51°02' E 001°34'9 9.3
2014-Oct-17 07:34N 50°54' E 001°26'10 9.5
2014-Oct-17 06:31N 50°45' E 001°22'21 7.1
2014-Oct-17 03:33N 50°30' E 000°58'7 6.6
2014-Oct-17 02:33N 50°27' E 000°49'7 6.9
2014-Oct-17 01:33N 50°26' E 000°38'7 6.8
2014-Oct-17 00:34N 50°24' E 000°28'7 6.4
2014-Oct-16 23:32N 50°22' E 000°18'6 5.7
2014-Oct-16 22:33N 50°20' E 000°10'239 7.9
2014-Oct-15 16:32N 48°14' W 005°00'1010.3
2014-Oct-15 15:33N 48°17' W 004°46'1010.2
2014-Oct-15 14:33N 48°21' W 004°32'4 3.7
2014-Oct-15 13:33N 48°23' W 004°27'0 0.0
2014-Oct-15 12:33N 48°23' W 004°27'0 0.0
2014-Oct-15 11:33N 48°23' W 004°27'0 0.0
2014-Oct-15 10:33N 48°23' W 004°27'0 0.0
2014-Oct-15 09:33N 48°23' W 004°27'0 0.0
2014-Oct-15 08:33N 48°23' W 004°27'0 0.0
2014-Oct-15 07:33N 48°23' W 004°27'0 0.0
2014-Oct-15 06:33N 48°23' W 004°27'0 0.0
2014-Oct-15 05:33N 48°23' W 004°27'0 0.0
2014-Oct-15 04:30N 48°23' W 004°27'0 0.0
2014-Oct-15 03:33N 48°23' W 004°27'0 0.0
2014-Oct-15 02:33N 48°23' W 004°27'0 0.0
2014-Oct-15 01:33N 48°23' W 004°27'0 0.0
2014-Oct-15 00:33N 48°23' W 004°27'0 0.0
2014-Oct-14 23:33N 48°23' W 004°27'0 0.0
2014-Oct-14 22:33N 48°23' W 004°27'0 0.0
2014-Oct-14 21:33N 48°23' W 004°27'0 0.0
2014-Oct-14 20:33N 48°23' W 004°27'0 0.0
2014-Oct-14 19:33N 48°23' W 004°27'0 0.0
2014-Oct-14 18:33N 48°23' W 004°27'0 0.0
2014-Oct-14 17:33N 48°23' W 004°27'0 0.0
2014-Oct-14 16:34N 48°23' W 004°27'0 0.0
2014-Oct-14 15:33N 48°23' W 004°27'0 0.0
2014-Oct-14 14:09N 48°23' W 004°27'0 0.0
2014-Oct-14 13:33N 48°23' W 004°27'0 0.0
2014-Oct-14 12:30N 48°23' W 004°27'0 0.0
2014-Oct-14 11:33N 48°23' W 004°27'0 0.0
2014-Oct-14 10:33N 48°23' W 004°27'0 0.0
2014-Oct-14 09:33N 48°23' W 004°27'0 0.0
2014-Oct-14 08:33N 48°23' W 004°27'0 0.0
2014-Oct-14 07:26N 48°23' W 004°27'0 0.0
2014-Oct-14 06:32N 48°23' W 004°27'0 0.0
2014-Oct-14 05:26N 48°23' W 004°27'0 0.0
2014-Oct-14 03:26N 48°23' W 004°27'0 0.0
2014-Oct-14 02:14N 48°23' W 004°27'0 0.0
2014-Oct-13 23:14N 48°23' W 004°27'0 0.0
2014-Oct-13 22:32N 48°23' W 004°27'0 0.0
2014-Oct-13 20:29N 48°23' W 004°27'0 0.0
2014-Oct-13 19:32N 48°23' W 004°27'0 0.0
2014-Oct-13 18:32N 48°23' W 004°27'0 0.0
2014-Oct-13 17:32N 48°23' W 004°27'0 0.0
2014-Oct-13 16:23N 48°23' W 004°27'0 0.0
2014-Oct-13 15:32N 48°23' W 004°27'0 0.0
2014-Oct-13 14:32N 48°23' W 004°27'0 0.0
2014-Oct-13 13:32N 48°23' W 004°27'0 0.0
2014-Oct-13 12:32N 48°23' W 004°27'  
Track history (hours):
 
Tides and Currents Weather Stations Pressure Air Temp Water Temp Dewpoint Dewpoint Depression Visibility Wind Speed Wind Dir Waves Ship Positions

Hildegaard

Last reported at 2014-Oct-21 04:32 UTC. Time now 2014-Oct-21 05:26 UTC.
Position N 56°03' W 002°57'.

Length 248 m; draft 8.6 m.

Type: Ship. MMSI: 308574000.

Date/timePositionNaut miles runAvg speedWind from/ knotsBaromVisibWave heightAir tempDewpointWater temp
2014-Oct-21 04:32N 56°03' W 002°57'0 0.0
2014-Oct-21 03:29N 56°03' W 002°57'0 0.0
2014-Oct-21 02:32N 56°03' W 002°57'0 0.0
2014-Oct-21 01:32N 56°03' W 002°57'0 0.0
2014-Oct-21 00:32N 56°03' W 002°57'0 0.1
2014-Oct-20 23:32N 56°03' W 002°57'0 0.0
2014-Oct-20 22:32N 56°03' W 002°57'0 0.0
2014-Oct-20 21:32N 56°03' W 002°57'0 0.1
2014-Oct-20 20:23N 56°03' W 002°57'0 0.0
2014-Oct-20 19:23N 56°03' W 002°57'0 0.0
2014-Oct-20 18:26N 56°03' W 002°57'0 0.0
2014-Oct-20 17:26N 56°03' W 002°57'0 0.0
2014-Oct-20 16:26N 56°03' W 002°57'0 0.0
2014-Oct-20 15:29N 56°03' W 002°57'0 0.0
2014-Oct-20 14:29N 56°03' W 002°57'0 0.0
2014-Oct-20 13:29N 56°03' W 002°57'0 0.0
2014-Oct-20 12:32N 56°03' W 002°57'0 0.0
2014-Oct-20 11:30N 56°03' W 002°57'0 0.0
2014-Oct-20 10:27N 56°03' W 002°57'0 0.0
2014-Oct-20 09:33N 56°03' W 002°57'0 0.0
2014-Oct-20 08:33N 56°03' W 002°57'0 0.0
2014-Oct-20 07:33N 56°03' W 002°57'2 1.9
2014-Oct-20 06:33N 56°04' W 002°54'1110.9
2014-Oct-20 05:33N 56°07' W 002°35'7 7.4
2014-Oct-20 04:33N 56°05' W 002°23'5 5.5
2014-Oct-20 03:33N 56°03' W 002°14'6 5.6
2014-Oct-20 02:33N 56°01' W 002°04'5 5.1
2014-Oct-20 01:33N 55°59' W 001°56'5 4.9
2014-Oct-20 00:34N 55°58' W 001°48'5 4.6
2014-Oct-19 23:34N 55°56' W 001°40'114 5.7
2014-Oct-19 03:29N 54°41' E 000°49'11 5.4
2014-Oct-19 01:26N 54°33' E 001°03'181 5.5
2014-Oct-17 16:33N 51°40' E 002°28'6 5.5
2014-Oct-17 15:33N 51°36' E 002°22'5 5.5
2014-Oct-17 14:33N 51°31' E 002°16'6 6.0
2014-Oct-17 13:32N 51°27' E 002°09'6 5.8
2014-Oct-17 12:34N 51°23' E 002°02'6 6.4
2014-Oct-17 11:33N 51°18' E 001°56'7 6.8
2014-Oct-17 10:34N 51°13' E 001°49'7 7.1
2014-Oct-17 09:34N 51°07' E 001°42'7 7.4
2014-Oct-17 08:34N 51°02' E 001°34'9 9.3
2014-Oct-17 07:34N 50°54' E 001°26'10 9.5
2014-Oct-17 06:31N 50°45' E 001°22'21 7.1
2014-Oct-17 03:33N 50°30' E 000°58'7 6.6
2014-Oct-17 02:33N 50°27' E 000°49'7 6.9
2014-Oct-17 01:33N 50°26' E 000°38'7 6.8
2014-Oct-17 00:34N 50°24' E 000°28'7 6.4
2014-Oct-16 23:32N 50°22' E 000°18'6 5.7
2014-Oct-16 22:33N 50°20' E 000°10'239 7.9
2014-Oct-15 16:32N 48°14' W 005°00'1010.3
2014-Oct-15 15:33N 48°17' W 004°46'1010.2
2014-Oct-15 14:33N 48°21' W 004°32'4 3.7
2014-Oct-15 13:33N 48°23' W 004°27'0 0.0
2014-Oct-15 12:33N 48°23' W 004°27'0 0.0
2014-Oct-15 11:33N 48°23' W 004°27'0 0.0
2014-Oct-15 10:33N 48°23' W 004°27'0 0.0
2014-Oct-15 09:33N 48°23' W 004°27'0 0.0
2014-Oct-15 08:33N 48°23' W 004°27'0 0.0
2014-Oct-15 07:33N 48°23' W 004°27'0 0.0
2014-Oct-15 06:33N 48°23' W 004°27'0 0.0
2014-Oct-15 05:33N 48°23' W 004°27'0 0.0
2014-Oct-15 04:30N 48°23' W 004°27'0 0.0
2014-Oct-15 03:33N 48°23' W 004°27'0 0.0
2014-Oct-15 02:33N 48°23' W 004°27'0 0.0
2014-Oct-15 01:33N 48°23' W 004°27'0 0.0
2014-Oct-15 00:33N 48°23' W 004°27'0 0.0
2014-Oct-14 23:33N 48°23' W 004°27'0 0.0
2014-Oct-14 22:33N 48°23' W 004°27'0 0.0
2014-Oct-14 21:33N 48°23' W 004°27'0 0.0
2014-Oct-14 20:33N 48°23' W 004°27'0 0.0
2014-Oct-14 19:33N 48°23' W 004°27'0 0.0
2014-Oct-14 18:33N 48°23' W 004°27'0 0.0
2014-Oct-14 17:33N 48°23' W 004°27'0 0.0
2014-Oct-14 16:34N 48°23' W 004°27'0 0.0
2014-Oct-14 15:33N 48°23' W 004°27'0 0.0
2014-Oct-14 14:09N 48°23' W 004°27'0 0.0
2014-Oct-14 13:33N 48°23' W 004°27'0 0.0
2014-Oct-14 12:30N 48°23' W 004°27'0 0.0
2014-Oct-14 11:33N 48°23' W 004°27'0 0.0
2014-Oct-14 10:33N 48°23' W 004°27'0 0.0
2014-Oct-14 09:33N 48°23' W 004°27'0 0.0
2014-Oct-14 08:33N 48°23' W 004°27'0 0.0
2014-Oct-14 07:26N 48°23' W 004°27'0 0.0
2014-Oct-14 06:32N 48°23' W 004°27'0 0.0
2014-Oct-14 05:26N 48°23' W 004°27'0 0.0
2014-Oct-14 03:26N 48°23' W 004°27'0 0.0
2014-Oct-14 02:14N 48°23' W 004°27'0 0.0
2014-Oct-13 23:14N 48°23' W 004°27'0 0.0
2014-Oct-13 22:32N 48°23' W 004°27'0 0.0
2014-Oct-13 20:29N 48°23' W 004°27'0 0.0
2014-Oct-13 19:32N 48°23' W 004°27'0 0.0
2014-Oct-13 18:32N 48°23' W 004°27'0 0.0
2014-Oct-13 17:32N 48°23' W 004°27'0 0.0
2014-Oct-13 16:23N 48°23' W 004°27'0 0.0
2014-Oct-13 15:32N 48°23' W 004°27'0 0.0
2014-Oct-13 14:32N 48°23' W 004°27'0 0.0
2014-Oct-13 13:32N 48°23' W 004°27'0 0.0
2014-Oct-13 12:32N 48°23' W 004°27'  

Dump ship's entire track history